Time,TemperatureF,DewpointF,PressureIn,WindDirection,WindDirectionDegrees,WindSpeedMPH,WindSpeedGustMPH,Humidity,HourlyPrecipIn,Conditions,Clouds,dailyrainin,SoftwareType,DateUTC
2013-08-16 00:00:00,65.9,65.9,29.59,SSW,198,0.0,0.0,100,0.00,,,0.00,VWS V14.01,2013-08-16 04:00:00,
2013-08-16 00:03:00,65.9,65.9,29.59,SSW,199,0.0,0.0,100,0.00,,,0.00,VWS V14.01,2013-08-16 04:03:00,
2013-08-16 00:08:00,65.7,65.7,29.59,SSW,199,0.0,0.0,100,0.00,,,0.00,VWS V14.01,2013-08-16 04:08:00,
2013-08-16 00:10:00,65.7,65.7,29.59,SSW,198,0.0,0.0,100,0.00,,,0.00,VWS V14.01,2013-08-16 04:10:00,
2013-08-16 00:13:00,65.7,65.7,29.59,SSW,199,0.0,0.0,100,0.00,,,0.00,VWS V14.01,2013-08-16 04:13:00,
2013-08-16 00:18:00,65.7,65.7,29.59,SSW,199,0.0,0.0,100,0.00,,,0.00,VWS V14.01,2013-08-16 04:18:00,
2013-08-16 00:20:00,65.7,65.7,29.59,SSW,199,0.0,0.0,100,0.00,,,0.00,VWS V14.01,2013-08-16 04:20:00,
2013-08-16 00:28:00,65.6,65.6,29.59,SSW,199,0.0,0.0,100,0.00,,,0.00,VWS V14.01,2013-08-16 04:28:00,
2013-08-16 00:30:00,65.6,65.6,29.59,SSW,199,0.0,0.0,100,0.00,,,0.00,VWS V14.01,2013-08-16 04:30:00,
2013-08-16 00:38:00,65.7,65.7,29.59,SSW,210,3.6,3.6,100,0.00,,,0.00,VWS V14.01,2013-08-16 04:38:00,
2013-08-16 00:40:00,65.6,65.6,29.59,SSW,210,3.6,3.6,100,0.00,,,0.00,VWS V14.01,2013-08-16 04:40:00,
2013-08-16 00:48:00,65.6,65.6,29.59,South,180,0.0,3.6,100,0.00,,,0.00,VWS V14.01,2013-08-16 04:48:00,
2013-08-16 00:50:00,65.6,65.6,29.59,South,180,0.0,3.6,100,0.00,,,0.00,VWS V14.01,2013-08-16 04:50:00,
2013-08-16 00:58:00,65.4,65.4,29.59,South,180,0.0,0.0,100,0.00,,,0.00,VWS V14.01,2013-08-16 04:58:00,
2013-08-16 01:00:00,65.6,65.6,29.59,South,180,0.0,0.0,100,0.00,,,0.00,VWS V14.01,2013-08-16 05:00:00,
2013-08-16 01:03:00,65.4,65.4,29.59,South,179,0.0,0.0,100,0.00,,,0.00,VWS V14.01,2013-08-16 05:03:00,
2013-08-16 01:08:00,65.4,65.4,29.59,South,179,0.0,0.0,100,0.00,,,0.00,VWS V14.01,2013-08-16 05:08:00,
2013-08-16 01:13:00,65.4,65.4,29.59,South,180,0.0,0.0,100,0.00,,,0.00,VWS V14.01,2013-08-16 05:13:00,
2013-08-16 01:20:00,65.4,65.4,29.59,South,180,0.0,0.0,100,0.00,,,0.00,VWS V14.01,2013-08-16 05:20:00,
2013-08-16 01:23:00,65.4,65.4,29.59,South,179,0.0,0.0,100,0.00,,,0.00,VWS V14.01,2013-08-16 05:23:00,
2013-08-16 01:28:00,65.2,65.2,29.59,South,179,0.0,0.0,100,0.00,,,0.00,VWS V14.01,2013-08-16 05:28:00,
2013-08-16 01:30:00,65.2,65.2,29.59,South,179,0.0,0.0,100,0.00,,,0.00,VWS V14.01,2013-08-16 05:30:00,
2013-08-16 01:38:00,65.2,65.2,29.59,South,179,0.0,0.0,100,0.00,,,0.00,VWS V14.01,2013-08-16 05:38:00,
2013-08-16 01:43:00,65.2,65.2,29.59,South,179,0.0,0.0,100,0.00,,,0.00,VWS V14.01,2013-08-16 05:43:00,
2013-08-16 01:48:00,64.8,64.8,29.59,South,178,0.0,0.0,100,0.00,,,0.00,VWS V14.01,2013-08-16 05:48:00,
2013-08-16 01:50:00,64.8,64.8,29.59,South,178,0.0,0.0,100,0.00,,,0.00,VWS V14.01,2013-08-16 05:50:00,
2013-08-16 01:53:00,64.8,64.8,29.59,NNE,17,0.0,0.0,100,0.00,,,0.00,VWS V14.01,2013-08-16 05:53:00,
2013-08-16 01:58:00,64.7,64.7,29.59,North,357,2.2,2.2,100,0.00,,,0.00,VWS V14.01,2013-08-16 05:58:00,
2013-08-16 02:00:00,64.7,64.7,29.59,North,357,2.2,2.2,100,0.00,,,0.00,VWS V14.01,2013-08-16 06:00:00,
2013-08-16 02:08:00,64.5,64.5,29.56,West,260,0.0,2.7,100,0.00,,,0.00,VWS V14.01,2013-08-16 06:08:00,
2013-08-16 02:13:00,64.5,64.5,29.56,West,260,0.0,0.0,100,0.00,,,0.00,VWS V14.01,2013-08-16 06:13:00,
2013-08-16 02:18:00,64.3,64.3,29.56,SSW,205,0.0,0.0,100,0.00,,,0.00,VWS V14.01,2013-08-16 06:18:00,
2013-08-16 02:20:00,64.3,64.3,29.56,SSW,213,0.0,0.0,100,0.00,,,0.00,VWS V14.01,2013-08-16 06:20:00,
2013-08-16 02:28:00,64.1,64.1,29.56,SSW,205,0.0,0.0,100,0.00,,,0.00,VWS V14.01,2013-08-16 06:28:00,
2013-08-16 02:30:00,64.1,64.1,29.56,West,262,2.7,2.7,100,0.00,,,0.00,VWS V14.01,2013-08-16 06:30:00,
2013-08-16 02:33:00,63.9,63.9,29.56,West,262,2.7,2.7,100,0.00,,,0.00,VWS V14.01,2013-08-16 06:33:00,
2013-08-16 02:38:00,63.9,63.9,29.56,West,262,2.7,2.7,100,0.00,,,0.00,VWS V14.01,2013-08-16 06:38:00,
2013-08-16 02:43:00,63.9,63.9,29.56,SE,143,0.0,2.7,100,0.00,,,0.00,VWS V14.01,2013-08-16 06:43:00,
2013-08-16 02:48:00,63.9,63.9,29.56,South,176,0.0,2.7,100,0.00,,,0.00,VWS V14.01,2013-08-16 06:48:00,
2013-08-16 02:50:00,63.9,63.9,29.56,South,176,0.0,2.7,100,0.00,,,0.00,VWS V14.01,2013-08-16 06:50:00,
2013-08-16 02:53:00,63.9,63.9,29.56,South,176,0.0,0.0,100,0.00,,,0.00,VWS V14.01,2013-08-16 06:53:00,
2013-08-16 02:58:00,63.9,63.9,29.56,South,186,0.0,0.0,100,0.00,,,0.00,VWS V14.01,2013-08-16 06:58:00,
2013-08-16 03:00:00,63.9,63.9,29.56,South,186,0.0,0.0,100,0.00,,,0.00,VWS V14.01,2013-08-16 07:00:00,
2013-08-16 03:03:00,63.9,63.9,29.56,South,186,0.0,0.0,100,0.00,,,0.00,VWS V14.01,2013-08-16 07:03:00,
2013-08-16 03:08:00,63.8,63.8,29.53,SSE,163,3.6,3.6,100,0.00,,,0.00,VWS V14.01,2013-08-16 07:08:00,
2013-08-16 03:10:00,63.8,63.8,29.53,SSE,163,3.6,3.6,100,0.00,,,0.00,VWS V14.01,2013-08-16 07:10:00,
2013-08-16 03:13:00,63.8,63.8,29.53,South,188,0.0,3.6,100,0.00,,,0.00,VWS V14.01,2013-08-16 07:13:00,
2013-08-16 03:18:00,63.8,63.8,29.53,South,188,0.0,3.6,100,0.00,,,0.00,VWS V14.01,2013-08-16 07:18:00,
2013-08-16 03:20:00,63.8,63.8,29.53,South,188,0.0,3.6,100,0.00,,,0.00,VWS V14.01,2013-08-16 07:20:00,
2013-08-16 03:23:00,63.8,63.8,29.56,South,191,0.0,0.0,100,0.00,,,0.00,VWS V14.01,2013-08-16 07:23:00,
2013-08-16 03:28:00,63.8,63.8,29.56,South,191,0.0,0.0,100,0.00,,,0.00,VWS V14.01,2013-08-16 07:28:00,
2013-08-16 03:30:00,63.8,63.8,29.56,South,191,0.0,0.0,100,0.00,,,0.00,VWS V14.01,2013-08-16 07:30:00,
2013-08-16 03:33:00,63.6,63.6,29.56,South,191,0.0,0.0,100,0.00,,,0.00,VWS V14.01,2013-08-16 07:33:00,
2013-08-16 03:38:00,63.6,63.6,29.53,WSW,246,0.0,0.0,100,0.00,,,0.00,VWS V14.01,2013-08-16 07:38:00,
2013-08-16 03:40:00,63.4,63.4,29.53,WSW,246,0.0,0.0,100,0.00,,,0.00,VWS V14.01,2013-08-16 07:40:00,
2013-08-16 03:43:00,63.4,63.4,29.53,WSW,246,0.0,0.0,100,0.00,,,0.00,VWS V14.01,2013-08-16 07:43:00,
2013-08-16 03:48:00,63.2,63.2,29.53,SSW,211,2.2,2.7,100,0.00,,,0.00,VWS V14.01,2013-08-16 07:48:00,
2013-08-16 03:50:00,63.2,63.2,29.53,SSW,211,2.2,2.7,100,0.00,,,0.00,VWS V14.01,2013-08-16 07:50:00,
2013-08-16 03:53:00,63.2,63.2,29.53,SSW,211,2.2,2.2,100,0.00,,,0.00,VWS V14.01,2013-08-16 07:53:00,
2013-08-16 03:58:00,63.2,63.2,29.53,SSW,211,2.2,2.2,100,0.00,,,0.00,VWS V14.01,2013-08-16 07:58:00,
2013-08-16 04:00:00,63.2,63.2,29.53,SSW,211,2.2,2.2,100,0.00,,,0.00,VWS V14.01,2013-08-16 08:00:00,
2013-08-16 04:03:00,63.2,63.2,29.53,WSW,245,0.0,2.2,100,0.00,,,0.00,VWS V14.01,2013-08-16 08:03:00,
2013-08-16 04:08:00,63.2,63.2,29.53,WSW,248,0.0,2.2,100,0.00,,,0.00,VWS V14.01,2013-08-16 08:08:00,
2013-08-16 04:10:00,63.2,63.2,29.53,WSW,248,0.0,2.2,100,0.00,,,0.00,VWS V14.01,2013-08-16 08:10:00,
2013-08-16 04:13:00,63.2,63.2,29.53,SSW,199,2.7,2.7,100,0.00,,,0.00,VWS V14.01,2013-08-16 08:13:00,
2013-08-16 04:18:00,63.2,63.2,29.53,SSW,204,3.1,3.1,100,0.00,,,0.00,VWS V14.01,2013-08-16 08:18:00,
2013-08-16 04:23:00,63.0,63.0,29.53,SSW,204,3.1,3.1,100,0.00,,,0.00,VWS V14.01,2013-08-16 08:23:00,
2013-08-16 04:28:00,63.0,63.0,29.53,South,173,0.0,3.1,100,0.00,,,0.00,VWS V14.01,2013-08-16 08:28:00,
2013-08-16 04:30:00,63.0,63.0,29.53,South,175,4.9,4.9,100,0.00,,,0.00,VWS V14.01,2013-08-16 08:30:00,
2013-08-16 04:38:00,63.0,63.0,29.53,South,170,0.0,4.9,100,0.00,,,0.00,VWS V14.01,2013-08-16 08:38:00,
2013-08-16 04:40:00,63.0,63.0,29.53,South,170,0.0,4.9,100,0.00,,,0.00,VWS V14.01,2013-08-16 08:40:00,
2013-08-16 04:43:00,62.9,62.9,29.53,SE,145,0.0,0.0,100,0.00,,,0.00,VWS V14.01,2013-08-16 08:43:00,
2013-08-16 04:48:00,62.9,62.9,29.53,SE,145,0.0,0.0,100,0.00,,,0.00,VWS V14.01,2013-08-16 08:48:00,
2013-08-16 04:50:00,62.9,62.9,29.53,SE,145,0.0,0.0,100,0.00,,,0.00,VWS V14.01,2013-08-16 08:50:00,
2013-08-16 04:53:00,62.9,62.9,29.53,SE,145,0.0,0.0,100,0.00,,,0.00,VWS V14.01,2013-08-16 08:53:00,
2013-08-16 04:58:00,62.9,62.9,29.53,West,261,2.7,2.7,100,0.00,,,0.00,VWS V14.01,2013-08-16 08:58:00,
2013-08-16 05:00:00,62.9,62.9,29.53,West,261,2.7,2.7,100,0.00,,,0.00,VWS V14.01,2013-08-16 09:00:00,
2013-08-16 05:03:00,62.9,62.9,29.53,West,261,2.7,2.7,100,0.00,,,0.00,VWS V14.01,2013-08-16 09:03:00,
2013-08-16 05:08:00,63.0,63.0,29.53,SSE,168,0.0,2.7,100,0.00,,,0.00,VWS V14.01,2013-08-16 09:08:00,
2013-08-16 05:10:00,63.0,63.0,29.53,SSE,168,0.0,2.7,100,0.00,,,0.00,VWS V14.01,2013-08-16 09:10:00,
2013-08-16 05:13:00,63.0,63.0,29.53,SSE,168,0.0,0.0,100,0.00,,,0.00,VWS V14.01,2013-08-16 09:13:00,
2013-08-16 05:18:00,63.0,63.0,29.53,SSE,168,0.0,0.0,100,0.00,,,0.00,VWS V14.01,2013-08-16 09:18:00,
2013-08-16 05:20:00,63.0,63.0,29.53,SSW,208,0.0,0.0,100,0.00,,,0.00,VWS V14.01,2013-08-16 09:20:00,
2013-08-16 05:28:00,63.0,63.0,29.53,South,185,0.0,0.0,100,0.00,,,0.00,VWS V14.01,2013-08-16 09:28:00,
2013-08-16 05:30:00,63.0,63.0,29.53,South,185,0.0,0.0,100,0.00,,,0.00,VWS V14.01,2013-08-16 09:30:00,
2013-08-16 05:33:00,63.0,63.0,29.53,SSW,198,0.0,0.0,100,0.00,,,0.00,VWS V14.01,2013-08-16 09:33:00,
2013-08-16 05:38:00,63.0,63.0,29.53,SSW,198,0.0,0.0,100,0.00,,,0.00,VWS V14.01,2013-08-16 09:38:00,
2013-08-16 05:40:00,63.0,63.0,29.53,SSW,198,0.0,0.0,100,0.00,,,0.00,VWS V14.01,2013-08-16 09:40:00,
2013-08-16 05:43:00,63.0,63.0,29.53,SSW,198,0.0,0.0,100,0.00,,,0.00,VWS V14.01,2013-08-16 09:43:00,
2013-08-16 05:48:00,63.0,63.0,29.53,South,170,2.7,2.7,100,0.00,,,0.00,VWS V14.01,2013-08-16 09:48:00,
2013-08-16 05:50:00,63.0,63.0,29.53,South,170,2.7,2.7,100,0.00,,,0.00,VWS V14.01,2013-08-16 09:50:00,
2013-08-16 05:53:00,63.0,63.0,29.53,South,170,2.7,2.7,100,0.00,,,0.00,VWS V14.01,2013-08-16 09:53:00,
2013-08-16 05:58:00,63.0,63.0,29.53,South,180,0.0,2.7,100,0.00,,,0.00,VWS V14.01,2013-08-16 09:58:00,
2013-08-16 06:00:00,63.0,63.0,29.53,South,180,0.0,2.7,100,0.00,,,0.00,VWS V14.01,2013-08-16 10:00:00,
2013-08-16 06:03:00,63.0,63.0,29.53,ESE,104,0.0,3.1,100,0.00,,,0.00,VWS V14.01,2013-08-16 10:03:00,
2013-08-16 06:09:00,63.0,63.0,29.53,ESE,104,0.0,3.1,100,0.00,,,0.00,VWS V14.01,2013-08-16 10:09:00,
2013-08-16 06:10:00,63.0,63.0,29.53,ESE,104,0.0,3.1,100,0.00,,,0.00,VWS V14.01,2013-08-16 10:10:00,
2013-08-16 06:14:00,63.0,63.0,29.53,SSW,203,0.0,0.0,100,0.00,,,0.00,VWS V14.01,2013-08-16 10:14:00,
2013-08-16 06:19:00,63.0,63.0,29.53,SSW,203,0.0,0.0,100,0.00,,,0.00,VWS V14.01,2013-08-16 10:19:00,
2013-08-16 06:20:00,63.0,63.0,29.53,SSW,203,0.0,0.0,100,0.00,,,0.00,VWS V14.01,2013-08-16 10:20:00,
2013-08-16 06:24:00,63.0,63.0,29.53,South,177,0.0,0.0,100,0.00,,,0.00,VWS V14.01,2013-08-16 10:24:00,
2013-08-16 06:29:00,63.0,63.0,29.53,SE,145,0.0,2.7,100,0.00,,,0.00,VWS V14.01,2013-08-16 10:29:00,
2013-08-16 06:30:00,63.0,63.0,29.53,SE,145,0.0,2.7,100,0.00,,,0.00,VWS V14.01,2013-08-16 10:30:00,
2013-08-16 06:34:00,62.9,62.9,29.53,West,259,2.7,2.7,100,0.00,,,0.00,VWS V14.01,2013-08-16 10:34:00,
2013-08-16 06:39:00,62.9,62.9,29.53,SSW,213,0.0,2.7,100,0.00,,,0.00,VWS V14.01,2013-08-16 10:39:00,
2013-08-16 06:40:00,62.9,62.9,29.53,South,188,5.4,5.4,100,0.00,,,0.00,VWS V14.01,2013-08-16 10:40:00,
2013-08-16 06:44:00,62.9,62.9,29.53,SSW,207,0.0,5.4,100,0.00,,,0.00,VWS V14.01,2013-08-16 10:44:00,
2013-08-16 06:49:00,62.9,62.9,29.53,SW,233,2.7,5.4,100,0.00,,,0.00,VWS V14.01,2013-08-16 10:49:00,
2013-08-16 06:50:00,62.9,62.9,29.53,SW,233,2.7,5.4,100,0.00,,,0.00,VWS V14.01,2013-08-16 10:50:00,
2013-08-16 06:54:00,62.9,62.9,29.53,SW,230,2.7,2.7,100,0.00,,,0.00,VWS V14.01,2013-08-16 10:54:00,
2013-08-16 06:59:00,62.9,62.9,29.53,South,176,2.2,2.7,100,0.00,,,0.00,VWS V14.01,2013-08-16 10:59:00,
2013-08-16 07:00:00,62.9,62.9,29.53,South,176,2.2,2.7,100,0.00,,,0.00,VWS V14.01,2013-08-16 11:00:00,
2013-08-16 07:04:00,62.9,62.9,29.53,NNE,14,0.0,2.2,100,0.00,,,0.00,VWS V14.01,2013-08-16 11:04:00,
2013-08-16 07:09:00,62.7,62.7,29.53,SSE,167,2.7,3.6,100,0.00,,,0.00,VWS V14.01,2013-08-16 11:09:00,
2013-08-16 07:10:00,62.7,62.7,29.53,SSE,167,2.7,3.6,100,0.00,,,0.00,VWS V14.01,2013-08-16 11:10:00,
2013-08-16 07:14:00,62.7,62.7,29.53,SW,215,2.7,2.7,100,0.00,,,0.00,VWS V14.01,2013-08-16 11:14:00,
2013-08-16 07:19:00,62.7,62.7,29.53,South,185,2.7,2.7,100,0.00,,,0.00,VWS V14.01,2013-08-16 11:19:00,
2013-08-16 07:20:00,62.7,62.7,29.53,South,185,2.7,2.7,100,0.00,,,0.00,VWS V14.01,2013-08-16 11:20:00,
2013-08-16 07:24:00,62.7,62.7,29.53,NW,306,0.0,2.7,100,0.00,,,0.00,VWS V14.01,2013-08-16 11:24:00,
2013-08-16 07:29:00,62.7,62.7,29.53,NW,306,0.0,2.7,100,0.00,,,0.00,VWS V14.01,2013-08-16 11:29:00,
2013-08-16 07:34:00,62.5,62.5,29.53,SSE,166,0.0,0.0,100,0.00,,,0.00,VWS V14.01,2013-08-16 11:34:00,
2013-08-16 07:39:00,62.5,62.5,29.53,SSE,166,0.0,0.0,100,0.00,,,0.00,VWS V14.01,2013-08-16 11:39:00,
2013-08-16 07:40:00,62.5,62.5,29.53,WNW,283,0.0,0.0,100,0.00,,,0.00,VWS V14.01,2013-08-16 11:40:00,
2013-08-16 07:44:00,62.5,62.5,29.53,WNW,283,0.0,0.0,100,0.00,,,0.00,VWS V14.01,2013-08-16 11:44:00,
2013-08-16 07:49:00,62.5,62.5,29.53,South,182,2.2,3.6,100,0.00,,,0.00,VWS V14.01,2013-08-16 11:49:00,
2013-08-16 07:50:00,62.5,62.5,29.53,South,182,2.2,3.6,100,0.00,,,0.00,VWS V14.01,2013-08-16 11:50:00,
2013-08-16 07:54:00,62.5,62.5,29.53,South,182,2.2,2.2,100,0.00,,,0.00,VWS V14.01,2013-08-16 11:54:00,
2013-08-16 07:59:00,62.5,62.5,29.53,SSW,194,2.2,2.2,100,0.00,,,0.00,VWS V14.01,2013-08-16 11:59:00,
2013-08-16 08:00:00,62.5,62.5,29.53,SSE,167,2.2,2.2,100,0.00,,,0.00,VWS V14.01,2013-08-16 12:00:00,
2013-08-16 08:04:00,62.5,62.5,29.53,SSE,167,2.2,2.2,100,0.00,,,0.00,VWS V14.01,2013-08-16 12:04:00,
2013-08-16 08:09:00,62.5,62.5,29.53,SW,225,0.0,2.2,100,0.00,,,0.00,VWS V14.01,2013-08-16 12:09:00,
2013-08-16 08:10:00,62.5,62.5,29.53,SW,225,0.0,2.2,100,0.00,,,0.00,VWS V14.01,2013-08-16 12:10:00,
2013-08-16 08:19:00,62.5,62.5,29.53,NNE,24,0.0,2.7,100,0.00,,,0.00,VWS V14.01,2013-08-16 12:19:00,
2013-08-16 08:20:00,62.5,62.5,29.53,NNE,24,0.0,2.7,100,0.00,,,0.00,VWS V14.01,2013-08-16 12:20:00,
2013-08-16 08:24:00,62.5,62.5,29.53,WSW,243,0.0,2.7,100,0.00,,,0.00,VWS V14.01,2013-08-16 12:24:00,
2013-08-16 08:29:00,62.5,62.5,29.53,West,270,0.0,2.7,100,0.00,,,0.00,VWS V14.01,2013-08-16 12:29:00,
2013-08-16 08:30:00,62.5,62.5,29.53,West,270,0.0,2.7,100,0.00,,,0.00,VWS V14.01,2013-08-16 12:30:00,
2013-08-16 08:34:00,62.5,62.5,29.53,NE,55,0.0,0.0,100,0.00,,,0.00,VWS V14.01,2013-08-16 12:34:00,
2013-08-16 08:39:00,62.5,62.5,29.53,SE,140,2.7,4.0,100,0.00,,,0.00,VWS V14.01,2013-08-16 12:39:00,
2013-08-16 08:44:00,62.5,62.5,29.53,South,175,0.0,0.0,100,0.00,,,0.00,VWS V14.01,2013-08-16 12:44:00,
2013-08-16 08:49:00,62.7,62.7,29.53,SSE,167,3.1,3.1,100,0.00,,,0.00,VWS V14.01,2013-08-16 12:49:00,
2013-08-16 08:50:00,62.7,62.7,29.53,SSE,167,3.1,3.1,100,0.00,,,0.00,VWS V14.01,2013-08-16 12:50:00,
2013-08-16 08:59:00,62.7,62.7,29.53,SSW,203,0.0,3.1,100,0.00,,,0.00,VWS V14.01,2013-08-16 12:59:00,
2013-08-16 09:00:00,62.5,62.5,29.53,SSW,203,0.0,3.1,100,0.00,,,0.00,VWS V14.01,2013-08-16 13:00:00,
2013-08-16 09:04:00,62.7,62.7,29.53,WSW,239,2.7,2.7,100,0.00,,,0.00,VWS V14.01,2013-08-16 13:04:00,
2013-08-16 09:09:00,62.7,62.7,29.53,WNW,302,2.2,2.7,100,0.00,,,0.00,VWS V14.01,2013-08-16 13:09:00,
2013-08-16 09:10:00,62.7,62.7,29.53,WNW,302,2.2,2.7,100,0.00,,,0.00,VWS V14.01,2013-08-16 13:10:00,
2013-08-16 09:14:00,62.5,62.5,29.53,SSE,150,0.0,2.2,100,0.00,,,0.00,VWS V14.01,2013-08-16 13:14:00,
2013-08-16 09:19:00,62.5,62.5,29.53,South,183,0.0,2.2,100,0.00,,,0.00,VWS V14.01,2013-08-16 13:19:00,
2013-08-16 09:20:00,62.5,62.5,29.53,SSW,200,0.0,2.2,100,0.00,,,0.00,VWS V14.01,2013-08-16 13:20:00,
2013-08-16 09:29:00,62.5,62.5,29.53,South,187,0.0,0.0,100,0.00,,,0.00,VWS V14.01,2013-08-16 13:29:00,
2013-08-16 09:30:00,62.5,62.5,29.53,South,187,0.0,0.0,100,0.00,,,0.00,VWS V14.01,2013-08-16 13:30:00,
2013-08-16 09:34:00,62.5,62.5,29.53,SSW,203,0.0,2.2,100,0.00,,,0.00,VWS V14.01,2013-08-16 13:34:00,
2013-08-16 09:39:00,62.7,62.7,29.53,WNW,298,2.2,2.2,100,0.00,,,0.00,VWS V14.01,2013-08-16 13:39:00,
2013-08-16 09:40:00,62.7,62.7,29.53,WNW,298,2.2,2.2,100,0.00,,,0.00,VWS V14.01,2013-08-16 13:40:00,
2013-08-16 09:44:00,62.9,62.9,29.53,SE,135,0.0,2.2,100,0.00,,,0.00,VWS V14.01,2013-08-16 13:44:00,
2013-08-16 09:49:00,62.9,62.9,29.53,SE,132,3.1,3.1,100,0.00,,,0.00,VWS V14.01,2013-08-16 13:49:00,
2013-08-16 09:50:00,62.9,62.9,29.53,SE,132,3.1,3.1,100,0.00,,,0.00,VWS V14.01,2013-08-16 13:50:00,
2013-08-16 09:54:00,62.9,62.9,29.56,South,181,3.1,3.1,100,0.00,,,0.00,VWS V14.01,2013-08-16 13:54:00,
2013-08-16 09:59:00,62.9,62.9,29.56,SW,223,0.0,3.1,100,0.00,,,0.00,VWS V14.01,2013-08-16 13:59:00,
2013-08-16 10:04:00,62.9,62.9,29.56,SW,223,0.0,0.0,100,0.00,,,0.00,VWS V14.01,2013-08-16 14:04:00,
2013-08-16 10:09:00,63.0,63.0,29.56,SW,233,0.0,0.0,100,0.00,,,0.00,VWS V14.01,2013-08-16 14:09:00,
2013-08-16 10:10:00,63.0,63.0,29.56,SW,233,0.0,0.0,100,0.00,,,0.00,VWS V14.01,2013-08-16 14:10:00,
2013-08-16 10:14:00,63.0,63.0,29.56,South,169,0.0,0.0,100,0.00,,,0.00,VWS V14.01,2013-08-16 14:14:00,
2013-08-16 10:19:00,63.0,63.0,29.56,South,190,4.0,4.0,100,0.00,,,0.00,VWS V14.01,2013-08-16 14:19:00,
2013-08-16 10:20:00,63.0,63.0,29.56,South,184,3.1,4.0,100,0.00,,,0.00,VWS V14.01,2013-08-16 14:20:00,
2013-08-16 10:29:00,63.2,63.2,29.56,South,184,0.0,3.1,100,0.00,,,0.00,VWS V14.01,2013-08-16 14:29:00,
2013-08-16 10:34:00,63.2,63.2,29.56,SSW,195,4.9,4.9,100,0.00,,,0.00,VWS V14.01,2013-08-16 14:34:00,
2013-08-16 10:39:00,63.2,63.2,29.56,SSW,195,4.9,4.9,100,0.00,,,0.00,VWS V14.01,2013-08-16 14:39:00,
2013-08-16 10:40:00,63.2,63.2,29.56,WSW,249,0.0,4.9,100,0.00,,,0.00,VWS V14.01,2013-08-16 14:40:00,
2013-08-16 10:49:00,63.2,63.2,29.56,WSW,241,2.7,3.1,100,0.00,,,0.00,VWS V14.01,2013-08-16 14:49:00,
2013-08-16 10:50:00,63.2,63.2,29.56,SW,229,3.6,3.6,100,0.00,,,0.00,VWS V14.01,2013-08-16 14:50:00,
2013-08-16 10:54:00,63.2,63.2,29.56,East,83,2.2,3.6,100,0.00,,,0.00,VWS V14.01,2013-08-16 14:54:00,
2013-08-16 10:59:00,63.2,63.2,29.56,South,184,0.0,3.6,100,0.00,,,0.00,VWS V14.01,2013-08-16 14:59:00,
2013-08-16 11:04:00,63.6,63.6,29.56,South,184,0.0,0.0,100,0.00,,,0.00,VWS V14.01,2013-08-16 15:04:00,
2013-08-16 11:09:00,63.6,63.6,29.56,SSE,156,4.0,4.0,100,0.00,,,0.00,VWS V14.01,2013-08-16 15:09:00,
2013-08-16 11:10:00,63.6,63.6,29.56,SSE,156,4.0,4.0,100,0.00,,,0.00,VWS V14.01,2013-08-16 15:10:00,
2013-08-16 11:14:00,63.6,63.6,29.56,NNW,345,0.0,4.0,100,0.00,,,0.00,VWS V14.01,2013-08-16 15:14:00,
2013-08-16 11:19:00,63.8,63.8,29.56,WSW,255,2.7,4.0,100,0.00,,,0.00,VWS V14.01,2013-08-16 15:19:00,
2013-08-16 11:20:00,63.8,63.8,29.56,WSW,255,2.2,4.0,100,0.00,,,0.00,VWS V14.01,2013-08-16 15:20:00,
2013-08-16 11:24:00,63.8,63.8,29.56,SW,230,0.0,2.7,100,0.00,,,0.00,VWS V14.01,2013-08-16 15:24:00,
2013-08-16 11:29:00,63.9,63.9,29.56,SW,230,0.0,2.7,100,0.00,,,0.00,VWS V14.01,2013-08-16 15:29:00,
2013-08-16 11:30:00,63.9,63.9,29.56,SW,230,0.0,2.7,100,0.00,,,0.00,VWS V14.01,2013-08-16 15:30:00,
2013-08-16 11:34:00,63.9,63.9,29.56,SSE,161,0.0,4.9,100,0.00,,,0.00,VWS V14.01,2013-08-16 15:34:00,
2013-08-16 11:39:00,63.8,63.8,29.56,North,5,0.0,4.9,100,0.00,,,0.00,VWS V14.01,2013-08-16 15:39:00,
2013-08-16 11:44:00,63.8,63.8,29.56,SSE,163,2.2,2.2,100,0.00,,,0.00,VWS V14.01,2013-08-16 15:44:00,
2013-08-16 11:49:00,63.8,63.8,29.56,SSW,207,3.6,3.6,100,0.00,,,0.00,VWS V14.01,2013-08-16 15:49:00,
2013-08-16 11:50:00,63.8,63.8,29.56,SSW,207,3.6,3.6,100,0.00,,,0.00,VWS V14.01,2013-08-16 15:50:00,
2013-08-16 11:54:00,63.8,63.8,29.56,North,349,2.7,3.6,100,0.00,,,0.00,VWS V14.01,2013-08-16 15:54:00,
2013-08-16 11:59:00,63.8,63.8,29.56,WSW,246,0.0,3.6,100,0.00,,,0.00,VWS V14.01,2013-08-16 15:59:00,
2013-08-16 12:00:00,63.8,63.8,29.56,WSW,246,0.0,3.6,100,0.00,,,0.00,VWS V14.01,2013-08-16 16:00:00,
2013-08-16 12:04:00,63.8,63.8,29.56,ESE,122,3.6,3.6,100,0.00,,,0.00,VWS V14.01,2013-08-16 16:04:00,
2013-08-16 12:09:00,63.8,63.8,29.56,South,183,0.0,3.6,100,0.00,,,0.00,VWS V14.01,2013-08-16 16:09:00,
2013-08-16 12:10:00,63.8,63.8,29.56,South,183,0.0,3.6,100,0.00,,,0.00,VWS V14.01,2013-08-16 16:10:00,
2013-08-16 12:14:00,63.8,63.8,29.56,SW,232,2.2,3.1,100,0.00,,,0.00,VWS V14.01,2013-08-16 16:14:00,
2013-08-16 12:19:00,63.8,63.8,29.56,NW,306,2.7,3.1,100,0.00,,,0.00,VWS V14.01,2013-08-16 16:19:00,
2013-08-16 12:24:00,63.8,63.8,29.56,South,173,0.0,2.7,100,0.00,,,0.00,VWS V14.01,2013-08-16 16:24:00,
2013-08-16 12:29:00,63.8,63.8,29.56,SW,219,0.0,3.1,100,0.00,,,0.00,VWS V14.01,2013-08-16 16:29:00,
2013-08-16 12:30:00,63.8,63.8,29.56,SW,219,0.0,3.1,100,0.00,,,0.00,VWS V14.01,2013-08-16 16:30:00,
2013-08-16 12:34:00,63.8,63.8,29.56,SSW,209,0.0,0.0,100,0.00,,,0.00,VWS V14.01,2013-08-16 16:34:00,
2013-08-16 12:39:00,63.8,63.8,29.56,SSW,203,0.0,0.0,100,0.00,,,0.00,VWS V14.01,2013-08-16 16:39:00,
2013-08-16 12:44:00,63.9,63.9,29.56,WSW,251,0.0,3.1,100,0.00,,,0.00,VWS V14.01,2013-08-16 16:44:00,
2013-08-16 12:49:00,63.9,63.9,29.56,SW,223,2.2,3.1,100,0.00,,,0.00,VWS V14.01,2013-08-16 16:49:00,
2013-08-16 12:50:00,63.9,63.9,29.56,SW,223,2.2,3.1,100,0.00,,,0.00,VWS V14.01,2013-08-16 16:50:00,
2013-08-16 12:54:00,64.1,64.1,29.56,SSW,197,4.0,4.0,100,0.00,,,0.00,VWS V14.01,2013-08-16 16:54:00,
2013-08-16 12:59:00,64.1,64.1,29.56,WSW,246,2.2,5.4,100,0.00,,,0.00,VWS V14.01,2013-08-16 16:59:00,
2013-08-16 13:00:00,64.1,64.1,29.56,WSW,246,2.2,5.4,100,0.00,,,0.00,VWS V14.01,2013-08-16 17:00:00,
2013-08-16 13:04:00,64.1,64.1,29.56,SW,231,0.0,2.2,100,0.00,,,0.00,VWS V14.01,2013-08-16 17:04:00,
2013-08-16 13:09:00,64.1,64.1,29.56,North,357,0.0,2.2,100,0.00,,,0.00,VWS V14.01,2013-08-16 17:09:00,
2013-08-16 13:10:00,64.1,64.1,29.56,North,357,0.0,2.2,100,0.00,,,0.00,VWS V14.01,2013-08-16 17:10:00,
2013-08-16 13:14:00,64.1,64.1,29.56,North,357,0.0,0.0,100,0.00,,,0.00,VWS V14.01,2013-08-16 17:14:00,
2013-08-16 13:19:00,64.5,64.5,29.56,SW,216,0.0,2.7,100,0.00,,,0.00,VWS V14.01,2013-08-16 17:19:00,
2013-08-16 13:20:00,64.5,64.5,29.56,SW,216,0.0,2.7,100,0.00,,,0.00,VWS V14.01,2013-08-16 17:20:00,
2013-08-16 13:24:00,64.7,64.7,29.56,South,185,0.0,0.0,100,0.00,,,0.00,VWS V14.01,2013-08-16 17:24:00,
2013-08-16 13:29:00,64.7,64.7,29.56,SSE,154,0.0,4.0,100,0.00,,,0.00,VWS V14.01,2013-08-16 17:29:00,
2013-08-16 13:34:00,64.7,64.7,29.56,SE,137,4.0,4.0,100,0.00,,,0.00,VWS V14.01,2013-08-16 17:34:00,
2013-08-16 13:39:00,64.7,64.7,29.56,SSW,212,0.0,4.0,100,0.00,,,0.00,VWS V14.01,2013-08-16 17:39:00,
2013-08-16 13:44:00,64.8,64.8,29.56,WSW,238,2.2,2.7,100,0.00,,,0.00,VWS V14.01,2013-08-16 17:44:00,
2013-08-16 13:49:00,64.8,64.8,29.56,South,176,3.1,3.6,100,0.00,,,0.00,VWS V14.01,2013-08-16 17:49:00,
2013-08-16 13:50:00,64.8,64.8,29.56,South,176,3.1,3.6,100,0.00,,,0.00,VWS V14.01,2013-08-16 17:50:00,
2013-08-16 13:59:00,64.8,64.8,29.56,NNW,341,0.0,3.1,100,0.00,,,0.00,VWS V14.01,2013-08-16 17:59:00,
2013-08-16 14:00:00,64.8,64.8,29.56,NNW,341,0.0,3.1,100,0.00,,,0.00,VWS V14.01,2013-08-16 18:00:00,
2013-08-16 14:04:00,65.2,65.2,29.56,NNW,341,0.0,0.0,100,0.00,,,0.00,VWS V14.01,2013-08-16 18:04:00,
2013-08-16 14:09:00,65.2,65.2,29.56,SW,220,2.2,2.2,100,0.00,,,0.00,VWS V14.01,2013-08-16 18:09:00,
2013-08-16 14:10:00,65.2,65.2,29.56,SW,220,2.2,2.2,100,0.00,,,0.00,VWS V14.01,2013-08-16 18:10:00,
2013-08-16 14:14:00,65.6,65.6,29.56,SE,144,0.0,2.7,100,0.00,,,0.00,VWS V14.01,2013-08-16 18:14:00,
2013-08-16 14:20:00,65.6,65.6,29.56,South,175,0.0,2.7,100,0.00,,,0.00,VWS V14.01,2013-08-16 18:20:00,
2013-08-16 14:25:00,65.6,65.6,29.56,SSW,193,0.0,0.0,100,0.00,,,0.00,VWS V14.01,2013-08-16 18:25:00,
2013-08-16 14:30:00,65.6,65.6,29.56,SSW,195,0.0,0.0,100,0.00,,,0.00,VWS V14.01,2013-08-16 18:30:00,
2013-08-16 14:35:00,65.6,65.6,29.56,SSW,193,0.0,0.0,100,0.00,,,0.00,VWS V14.01,2013-08-16 18:35:00,
2013-08-16 14:40:00,65.6,65.6,29.56,South,186,0.0,0.0,100,0.00,,,0.00,VWS V14.01,2013-08-16 18:40:00,
2013-08-16 14:45:00,65.6,65.6,29.56,SW,221,0.0,0.0,100,0.00,,,0.00,VWS V14.01,2013-08-16 18:45:00,
2013-08-16 14:50:00,65.6,65.6,29.56,SSW,197,0.0,3.1,100,0.00,,,0.00,VWS V14.01,2013-08-16 18:50:00,
2013-08-16 15:00:00,65.7,65.7,29.56,WSW,240,0.0,2.7,100,0.00,,,0.00,VWS V14.01,2013-08-16 19:00:00,
2013-08-16 15:05:00,65.9,65.9,29.53,SSE,153,0.0,0.0,100,0.00,,,0.00,VWS V14.01,2013-08-16 19:05:00,
2013-08-16 15:10:00,65.9,65.9,29.53,WSW,252,0.0,3.6,100,0.00,,,0.00,VWS V14.01,2013-08-16 19:10:00,
2013-08-16 15:15:00,65.7,65.7,29.53,SSE,164,0.0,0.0,100,0.00,,,0.00,VWS V14.01,2013-08-16 19:15:00,
2013-08-16 15:20:00,65.7,65.7,29.53,South,184,0.0,0.0,100,0.00,,,0.00,VWS V14.01,2013-08-16 19:20:00,
2013-08-16 15:25:00,65.7,65.7,29.53,ESE,111,0.0,0.0,100,0.00,,,0.00,VWS V14.01,2013-08-16 19:25:00,
2013-08-16 15:30:00,65.6,65.6,29.56,SSW,201,0.0,4.9,100,0.00,,,0.00,VWS V14.01,2013-08-16 19:30:00,
2013-08-16 15:35:00,65.6,65.6,29.56,South,180,0.0,0.0,100,0.00,,,0.00,VWS V14.01,2013-08-16 19:35:00,
2013-08-16 15:40:00,65.7,65.7,29.56,SSE,163,0.0,0.0,100,0.00,,,0.00,VWS V14.01,2013-08-16 19:40:00,
2013-08-16 15:45:00,65.4,65.4,29.56,SE,140,0.0,0.0,100,0.00,,,0.00,VWS V14.01,2013-08-16 19:45:00,
2013-08-16 15:50:00,65.6,65.6,29.56,WSW,248,0.0,0.0,100,0.00,,,0.00,VWS V14.01,2013-08-16 19:50:00,
2013-08-16 15:55:00,65.6,65.6,29.56,South,187,0.0,0.0,100,0.00,,,0.00,VWS V14.01,2013-08-16 19:55:00,
2013-08-16 16:00:00,65.7,65.7,29.53,SW,232,0.0,0.0,100,0.00,,,0.00,VWS V14.01,2013-08-16 20:00:00,
2013-08-16 16:05:00,65.7,65.7,29.53,SW,226,0.0,0.0,100,0.00,,,0.00,VWS V14.01,2013-08-16 20:05:00,
2013-08-16 16:10:00,65.7,65.7,29.56,SW,236,3.6,3.6,100,0.00,,,0.00,VWS V14.01,2013-08-16 20:10:00,
2013-08-16 16:15:00,66.1,66.1,29.56,SSE,162,0.0,3.6,100,0.00,,,0.00,VWS V14.01,2013-08-16 20:15:00,
2013-08-16 16:20:00,66.3,66.3,29.56,West,264,0.0,3.6,100,0.00,,,0.00,VWS V14.01,2013-08-16 20:20:00,
2013-08-16 16:25:00,66.3,66.3,29.56,South,177,0.0,0.0,100,0.00,,,0.00,VWS V14.01,2013-08-16 20:25:00,
2013-08-16 16:30:00,66.5,66.5,29.56,WSW,255,0.0,3.1,100,0.00,,,0.00,VWS V14.01,2013-08-16 20:30:00,
2013-08-16 16:35:00,66.5,66.5,29.56,South,185,0.0,0.0,100,0.00,,,0.00,VWS V14.01,2013-08-16 20:35:00,
2013-08-16 16:40:00,66.6,66.6,29.56,SSE,165,0.0,0.0,100,0.00,,,0.00,VWS V14.01,2013-08-16 20:40:00,
2013-08-16 16:45:00,66.6,66.6,29.56,WNW,287,2.2,2.2,100,0.00,,,0.00,VWS V14.01,2013-08-16 20:45:00,
2013-08-16 16:50:00,66.8,66.8,29.56,WSW,242,0.0,2.2,100,0.00,,,0.00,VWS V14.01,2013-08-16 20:50:00,
2013-08-16 16:55:00,66.8,66.8,29.56,NE,56,0.0,0.0,100,0.00,,,0.00,VWS V14.01,2013-08-16 20:55:00,
2013-08-16 17:00:00,66.6,66.6,29.56,NE,56,0.0,0.0,100,0.00,,,0.00,VWS V14.01,2013-08-16 21:00:00,
2013-08-16 17:05:00,66.3,66.3,29.56,SSW,210,2.2,4.9,100,0.00,,,0.00,VWS V14.01,2013-08-16 21:05:00,
2013-08-16 17:10:00,66.3,66.3,29.53,SW,234,2.2,4.9,100,0.00,,,0.00,VWS V14.01,2013-08-16 21:10:00,
2013-08-16 17:15:00,66.1,66.1,29.53,WSW,243,0.0,2.2,100,0.00,,,0.00,VWS V14.01,2013-08-16 21:15:00,
2013-08-16 17:20:00,66.1,66.1,29.53,SW,217,0.0,2.2,100,0.00,,,0.00,VWS V14.01,2013-08-16 21:20:00,
2013-08-16 17:25:00,66.3,66.3,29.53,SW,217,0.0,0.0,100,0.00,,,0.00,VWS V14.01,2013-08-16 21:25:00,
2013-08-16 17:30:00,66.3,66.3,29.53,WSW,246,0.0,0.0,100,0.00,,,0.00,VWS V14.01,2013-08-16 21:30:00,
2013-08-16 17:35:00,66.3,66.3,29.53,South,170,2.7,2.7,100,0.00,,,0.00,VWS V14.01,2013-08-16 21:35:00,
2013-08-16 17:40:00,66.1,66.1,29.53,South,170,2.7,2.7,100,0.00,,,0.00,VWS V14.01,2013-08-16 21:40:00,
2013-08-16 17:45:00,65.9,65.9,29.53,SSE,163,0.0,3.1,100,0.00,,,0.00,VWS V14.01,2013-08-16 21:45:00,
2013-08-16 17:50:00,65.9,65.9,29.53,SSW,206,0.0,3.1,100,0.00,,,0.00,VWS V14.01,2013-08-16 21:50:00,
2013-08-16 17:55:00,65.7,65.7,29.53,SSE,168,0.0,0.0,100,0.00,,,0.00,VWS V14.01,2013-08-16 21:55:00,
2013-08-16 18:00:00,65.7,65.7,29.53,South,176,0.0,0.0,100,0.00,,,0.00,VWS V14.01,2013-08-16 22:00:00,
2013-08-16 18:05:00,65.4,65.4,29.53,NNW,334,0.0,0.0,100,0.00,,,0.00,VWS V14.01,2013-08-16 22:05:00,
2013-08-16 18:10:00,65.4,65.4,29.53,South,188,0.0,0.0,100,0.00,,,0.00,VWS V14.01,2013-08-16 22:10:00,
2013-08-16 18:15:00,65.2,65.2,29.53,SSW,199,0.0,0.0,100,0.00,,,0.00,VWS V14.01,2013-08-16 22:15:00,
2013-08-16 18:20:00,65.2,65.2,29.53,SSW,208,0.0,0.0,100,0.00,,,0.00,VWS V14.01,2013-08-16 22:20:00,
2013-08-16 18:25:00,65.2,65.2,29.53,South,180,0.0,0.0,100,0.00,,,0.00,VWS V14.01,2013-08-16 22:25:00,
2013-08-16 18:30:00,65.2,65.2,29.53,South,180,0.0,0.0,100,0.00,,,0.00,VWS V14.01,2013-08-16 22:30:00,
2013-08-16 18:35:00,65.0,65.0,29.53,SSE,165,2.2,2.2,100,0.00,,,0.00,VWS V14.01,2013-08-16 22:35:00,
2013-08-16 18:40:00,65.0,65.0,29.53,NNE,33,0.0,2.2,100,0.00,,,0.00,VWS V14.01,2013-08-16 22:40:00,
2013-08-16 18:45:00,64.8,64.8,29.53,SSW,194,0.0,0.0,100,0.00,,,0.00,VWS V14.01,2013-08-16 22:45:00,
2013-08-16 18:50:00,64.8,64.8,29.53,SSE,155,2.2,2.2,100,0.00,,,0.00,VWS V14.01,2013-08-16 22:50:00,
2013-08-16 18:55:00,64.7,64.7,29.53,WSW,241,0.0,2.2,100,0.00,,,0.00,VWS V14.01,2013-08-16 22:55:00,
2013-08-16 19:00:00,64.7,64.7,29.53,South,172,0.0,2.2,100,0.00,,,0.00,VWS V14.01,2013-08-16 23:00:00,
2013-08-16 19:05:00,64.7,64.7,29.53,WNW,301,0.0,0.0,100,0.00,,,0.00,VWS V14.01,2013-08-16 23:05:00,
2013-08-16 19:10:00,64.7,64.7,29.56,SSE,162,0.0,0.0,100,0.00,,,0.00,VWS V14.01,2013-08-16 23:10:00,
2013-08-16 19:15:00,64.5,64.5,29.56,East,93,0.0,0.0,100,0.00,,,0.00,VWS V14.01,2013-08-16 23:15:00,
2013-08-16 19:20:00,64.5,64.5,29.56,SSE,164,0.0,0.0,100,0.00,,,0.00,VWS V14.01,2013-08-16 23:20:00,
2013-08-16 19:25:00,64.5,64.5,29.56,SSE,163,0.0,0.0,100,0.00,,,0.00,VWS V14.01,2013-08-16 23:25:00,
2013-08-16 19:30:00,64.5,64.5,29.56,West,259,4.0,4.0,100,0.00,,,0.00,VWS V14.01,2013-08-16 23:30:00,
2013-08-16 19:35:00,64.5,64.5,29.56,West,259,4.0,4.0,100,0.00,,,0.00,VWS V14.01,2013-08-16 23:35:00,
2013-08-16 19:40:00,64.5,64.5,29.56,SW,235,0.0,4.0,100,0.00,,,0.00,VWS V14.01,2013-08-16 23:40:00,
2013-08-16 19:45:00,64.5,64.5,29.56,SSE,157,2.2,2.2,100,0.00,,,0.00,VWS V14.01,2013-08-16 23:45:00,
2013-08-16 19:50:00,64.3,64.3,29.56,West,277,2.2,2.2,100,0.00,,,0.00,VWS V14.01,2013-08-16 23:50:00,
2013-08-16 19:55:00,64.3,64.3,29.56,SSW,199,0.0,2.2,100,0.00,,,0.00,VWS V14.01,2013-08-16 23:55:00,
2013-08-16 20:00:00,64.3,64.3,29.56,SSW,199,0.0,0.0,100,0.00,,,0.00,VWS V14.01,2013-08-17 00:00:00,
2013-08-16 20:05:00,64.1,64.1,29.56,SSE,151,0.0,0.0,100,0.00,,,0.00,VWS V14.01,2013-08-17 00:05:00,
2013-08-16 20:10:00,63.9,63.9,29.56,South,180,0.0,0.0,100,0.00,,,0.00,VWS V14.01,2013-08-17 00:10:00,
2013-08-16 20:15:00,63.9,63.9,29.56,South,180,0.0,0.0,100,0.00,,,0.00,VWS V14.01,2013-08-17 00:15:00,
2013-08-16 20:20:00,63.9,63.9,29.56,SSE,166,0.0,0.0,100,0.00,,,0.00,VWS V14.01,2013-08-17 00:20:00,
2013-08-16 20:25:00,63.8,63.8,29.59,South,189,0.0,0.0,100,0.00,,,0.00,VWS V14.01,2013-08-17 00:25:00,
2013-08-16 20:30:00,63.8,63.8,29.59,South,189,0.0,0.0,100,0.00,,,0.00,VWS V14.01,2013-08-17 00:30:00,
2013-08-16 20:35:00,63.8,63.8,29.59,SSW,195,0.0,0.0,100,0.00,,,0.00,VWS V14.01,2013-08-17 00:35:00,
2013-08-16 20:40:00,63.8,63.8,29.59,ESE,108,0.0,0.0,100,0.00,,,0.00,VWS V14.01,2013-08-17 00:40:00,
2013-08-16 20:45:00,63.8,63.8,29.59,SSW,195,0.0,0.0,100,0.00,,,0.00,VWS V14.01,2013-08-17 00:45:00,
2013-08-16 20:50:00,63.6,63.6,29.59,SW,221,0.0,0.0,100,0.00,,,0.00,VWS V14.01,2013-08-17 00:50:00,
2013-08-16 20:55:00,63.4,63.4,29.59,South,183,0.0,0.0,100,0.00,,,0.00,VWS V14.01,2013-08-17 00:55:00,
2013-08-16 21:00:00,63.4,63.4,29.59,SSW,204,0.0,2.2,100,0.00,,,0.00,VWS V14.01,2013-08-17 01:00:00,
2013-08-16 21:05:00,63.4,63.4,29.59,South,191,0.0,0.0,100,0.00,,,0.00,VWS V14.01,2013-08-17 01:05:00,
2013-08-16 21:10:00,63.4,63.4,29.59,South,177,0.0,0.0,100,0.00,,,0.00,VWS V14.01,2013-08-17 01:10:00,
2013-08-16 21:15:00,63.2,63.2,29.59,SSE,161,0.0,0.0,100,0.00,,,0.00,VWS V14.01,2013-08-17 01:15:00,
2013-08-16 21:20:00,63.0,63.0,29.59,WSW,239,0.0,0.0,100,0.00,,,0.00,VWS V14.01,2013-08-17 01:20:00,
2013-08-16 21:25:00,62.9,62.9,29.59,SSE,162,0.0,0.0,100,0.00,,,0.00,VWS V14.01,2013-08-17 01:25:00,
2013-08-16 21:30:00,62.9,62.9,29.59,South,170,0.0,0.0,100,0.00,,,0.00,VWS V14.01,2013-08-17 01:30:00,
2013-08-16 21:35:00,62.9,62.9,29.59,SSW,200,0.0,0.0,100,0.00,,,0.00,VWS V14.01,2013-08-17 01:35:00,
2013-08-16 21:40:00,62.7,62.7,29.59,SSW,200,0.0,0.0,100,0.00,,,0.00,VWS V14.01,2013-08-17 01:40:00,
2013-08-16 21:45:00,62.5,62.5,29.59,SSW,196,0.0,0.0,100,0.00,,,0.00,VWS V14.01,2013-08-17 01:45:00,
2013-08-16 21:50:00,62.5,62.5,29.59,SSW,196,0.0,0.0,100,0.00,,,0.00,VWS V14.01,2013-08-17 01:50:00,
2013-08-16 21:55:00,62.3,62.3,29.59,SSW,192,0.0,0.0,100,0.00,,,0.00,VWS V14.01,2013-08-17 01:55:00,
2013-08-16 22:00:00,62.3,62.3,29.59,SSW,192,0.0,0.0,100,0.00,,,0.00,VWS V14.01,2013-08-17 02:00:00,
2013-08-16 22:05:00,62.1,62.1,29.59,South,179,0.0,0.0,100,0.00,,,0.00,VWS V14.01,2013-08-17 02:05:00,
2013-08-16 22:10:00,62.1,62.1,29.59,SSW,196,0.0,0.0,100,0.00,,,0.00,VWS V14.01,2013-08-17 02:10:00,
2013-08-16 22:15:00,62.0,62.0,29.59,SE,136,0.0,0.0,100,0.00,,,0.00,VWS V14.01,2013-08-17 02:15:00,
2013-08-16 22:20:00,62.0,62.0,29.59,SSW,193,0.0,0.0,100,0.00,,,0.00,VWS V14.01,2013-08-17 02:20:00,
2013-08-16 22:25:00,62.0,62.0,29.59,South,180,0.0,0.0,100,0.00,,,0.00,VWS V14.01,2013-08-17 02:25:00,
2013-08-16 22:30:00,62.0,62.0,29.59,SSE,164,0.0,0.0,100,0.00,,,0.00,VWS V14.01,2013-08-17 02:30:00,
2013-08-16 22:35:00,62.0,62.0,29.59,SSE,157,0.0,0.0,100,0.00,,,0.00,VWS V14.01,2013-08-17 02:35:00,
2013-08-16 22:40:00,61.8,61.8,29.59,SSE,162,0.0,0.0,100,0.00,,,0.00,VWS V14.01,2013-08-17 02:40:00,
2013-08-16 22:45:00,61.8,61.8,29.59,SSW,197,0.0,0.0,100,0.00,,,0.00,VWS V14.01,2013-08-17 02:45:00,
2013-08-16 22:50:00,61.8,61.8,29.59,West,276,0.0,0.0,100,0.00,,,0.00,VWS V14.01,2013-08-17 02:50:00,
2013-08-16 22:55:00,61.8,61.8,29.59,South,185,0.0,0.0,100,0.00,,,0.00,VWS V14.01,2013-08-17 02:55:00,
2013-08-16 23:00:00,61.8,61.8,29.59,SSW,203,0.0,2.2,100,0.00,,,0.00,VWS V14.01,2013-08-17 03:00:00,
2013-08-16 23:06:00,61.8,61.8,29.59,SSW,194,0.0,0.0,100,0.00,,,0.00,VWS V14.01,2013-08-17 03:06:00,
2013-08-16 23:10:00,61.8,61.8,29.59,SSW,209,0.0,0.0,100,0.00,,,0.00,VWS V14.01,2013-08-17 03:10:00,
2013-08-16 23:11:00,61.8,61.8,29.59,SSW,210,0.0,0.0,100,0.00,,,0.00,VWS V14.01,2013-08-17 03:11:00,
2013-08-16 23:16:00,62.0,62.0,29.59,SSE,154,0.0,0.0,100,0.00,,,0.00,VWS V14.01,2013-08-17 03:16:00,
2013-08-16 23:20:00,62.0,62.0,29.59,South,184,0.0,0.0,100,0.00,,,0.00,VWS V14.01,2013-08-17 03:20:00,
2013-08-16 23:26:00,62.0,62.0,29.59,SW,215,2.2,2.2,100,0.00,,,0.00,VWS V14.01,2013-08-17 03:26:00,
2013-08-16 23:30:00,62.0,62.0,29.59,South,178,0.0,2.2,100,0.00,,,0.00,VWS V14.01,2013-08-17 03:30:00,
2013-08-16 23:36:00,62.0,62.0,29.59,SSE,152,0.0,0.0,100,0.00,,,0.00,VWS V14.01,2013-08-17 03:36:00,
2013-08-16 23:40:00,62.0,62.0,29.59,SSW,197,0.0,0.0,100,0.00,,,0.00,VWS V14.01,2013-08-17 03:40:00,
2013-08-16 23:41:00,62.0,62.0,29.59,SSW,197,0.0,0.0,100,0.00,,,0.00,VWS V14.01,2013-08-17 03:41:00,
2013-08-16 23:46:00,62.0,62.0,29.59,SW,217,0.0,0.0,100,0.00,,,0.00,VWS V14.01,2013-08-17 03:46:00,
2013-08-16 23:50:00,62.0,62.0,29.59,South,187,0.0,0.0,100,0.00,,,0.00,VWS V14.01,2013-08-17 03:50:00,
2013-08-16 23:51:00,62.0,62.0,29.59,South,187,0.0,0.0,100,0.00,,,0.00,VWS V14.01,2013-08-17 03:51:00,
2013-08-16 23:56:00,62.0,62.0,29.59,SW,229,0.0,0.0,100,0.00,,,0.00,VWS V14.01,2013-08-17 03:56:00,